Date String (YYYY-MM-DD hh:mm:ss) UTC,Instrument flags,Ambient pressure (hPa),Sample flow (lpm),Bypass flow (lpm),Sample temperature (°C),Ambient temperature (°C),ASC tube jacket temperature (°C),LED temperature (°C),Box temperature (°C),Sample RH (%),Span deviation,Mass concentration (μg/m³),Mass concentration (μg/m³),Mass concentration (μg/m³)
DateTimeUTC,F1_M11,P_M11,Q1_M11,Q2_M11,T1_M11,T2_M11,T3_M11,T4_M11,T5_M11,U1_M11,ZSPAN_M11,X0_M11,X2_M11,X1_M11
2022-03-11 06:00:00,,0826.8,5.00,0.00,22.0,22.3,00.0,31.1,23.8,05.7,0003.8,0010.14,0007.58,0007.28
2022-03-11 06:01:00,,0826.8,5.00,0.00,22.2,22.9,00.0,31.1,24.1,05.7,0003.9,0010.05,0007.54,0007.28
2022-03-11 06:02:00,,0827.0,5.00,0.00,22.3,22.9,00.0,31.1,24.1,05.7,0003.7,0010.13,0007.56,0007.27
2022-03-11 06:03:00,,0827.0,4.99,0.00,22.2,22.5,00.0,31.2,24.0,05.7,0002.6,0010.23,0007.59,0007.28
2022-03-11 06:04:00,,0826.8,5.01,0.00,22.2,22.2,00.0,31.2,23.9,05.7,0001.3,0010.22,0007.57,0007.27
2022-03-11 06:05:00,,0826.8,5.00,0.00,22.1,21.8,00.0,31.1,23.7,05.8,0001.0,0010.14,0007.53,0007.24
2022-03-11 06:06:00,,0826.8,5.00,0.00,22.0,21.5,00.0,31.1,23.6,05.8,0001.3,0010.10,0007.52,0007.23
2022-03-11 06:07:00,,0826.8,5.00,0.00,21.9,21.3,00.0,31.1,23.4,05.8,0001.9,0010.13,0007.52,0007.21
2022-03-11 06:08:00,,0826.8,5.00,0.00,21.9,21.1,00.0,31.1,23.3,05.8,0001.7,0010.27,0007.50,0007.16
2022-03-11 06:09:00,,0826.8,5.00,0.00,21.9,21.5,00.0,31.1,23.5,05.8,0001.6,0010.35,0007.50,0007.12
2022-03-11 06:10:00,,0826.8,4.99,0.00,22.0,22.2,00.0,31.1,23.8,05.8,0001.7,0010.28,0007.45,0007.08
2022-03-11 06:11:00,,0826.9,5.00,0.00,22.1,22.8,00.0,31.1,24.0,05.8,0001.8,0010.63,0007.47,0007.06
2022-03-11 06:12:00,,0826.9,5.01,0.00,22.3,23.3,00.0,31.2,24.2,05.8,0001.2,0011.03,0007.48,0007.05
2022-03-11 06:13:00,,0826.9,5.00,0.00,22.4,23.0,00.0,31.2,24.2,05.7,0000.4,0011.07,0007.50,0007.08
2022-03-11 06:14:00,,0827.0,4.99,0.00,22.3,22.6,00.0,31.2,24.1,05.7,0001.0,0011.02,0007.48,0007.08
2022-03-11 06:15:00,,0826.9,5.00,0.00,22.3,22.2,00.0,31.2,24.0,05.8,0001.5,0011.09,0007.50,0007.10
2022-03-11 06:16:00,,0826.9,5.00,0.00,22.2,21.9,00.0,31.2,23.8,05.8,0001.4,0011.17,0007.54,0007.14
2022-03-11 06:17:00,,0826.9,5.00,0.00,22.1,21.6,00.0,31.2,23.7,05.8,0001.1,0011.25,0007.59,0007.18
2022-03-11 06:18:00,,0826.8,5.00,0.00,22.0,21.4,00.0,31.2,23.6,05.8,0000.8,0011.20,0007.60,0007.21
2022-03-11 06:19:00,,0827.0,5.00,0.00,22.0,21.2,00.0,31.1,23.5,05.9,0000.5,0011.14,0007.60,0007.24
2022-03-11 06:20:00,,0827.0,5.01,0.00,21.9,21.2,00.0,31.1,23.4,05.9,0000.9,0011.01,0007.59,0007.28
2022-03-11 06:21:00,,0826.9,4.99,0.00,22.0,21.7,00.0,31.1,23.6,05.9,0001.0,0011.05,0007.62,0007.31
2022-03-11 06:22:00,,0826.8,5.01,0.00,22.1,22.4,00.0,31.2,23.9,05.9,0000.9,0011.05,0007.65,0007.34
2022-03-11 06:23:00,,0826.9,5.01,0.00,22.2,22.9,00.0,31.2,24.1,05.9,0001.2,0011.05,0007.71,0007.39
2022-03-11 06:24:00,,0826.8,4.98,0.00,22.3,22.8,00.0,31.2,24.2,05.9,0001.5,0011.08,0007.77,0007.43
2022-03-11 06:25:00,,0826.9,5.00,0.00,22.3,22.5,00.0,31.2,24.1,05.9,0001.2,0011.08,0007.80,0007.47
2022-03-11 06:26:00,,0827.0,5.01,0.00,22.2,22.2,00.0,31.2,23.9,05.9,0001.3,0011.10,0007.83,0007.50
2022-03-11 06:27:00,,0826.8,5.00,0.00,22.2,21.9,00.0,31.2,23.8,05.9,0001.5,0011.20,0007.89,0007.53
2022-03-11 06:28:00,,0826.9,4.99,0.00,22.1,21.6,00.0,31.2,23.7,06.0,0001.5,0011.18,0007.90,0007.54
2022-03-11 06:29:00,,0827.0,4.99,0.00,22.0,21.4,00.0,31.1,23.6,06.0,0001.6,0011.21,0007.91,0007.54
2022-03-11 06:30:00,,0826.9,5.01,0.00,22.0,21.2,00.0,31.1,23.5,06.0,0002.0,0011.22,0007.92,0007.57
2022-03-11 06:31:00,,0826.8,5.01,0.00,21.9,21.3,00.0,31.1,23.5,06.1,0002.0,0011.22,0007.95,0007.61
2022-03-11 06:32:00,,0826.8,4.98,0.00,22.0,22.0,00.0,31.1,23.7,06.1,0001.4,0011.31,0008.02,0007.65
2022-03-11 06:33:00,,0826.8,5.00,0.00,22.2,22.7,00.0,31.2,24.0,06.1,0000.9,0011.40,0008.09,0007.70
2022-03-11 06:34:00,,0826.8,5.01,0.00,22.3,23.1,00.0,31.2,24.2,06.0,0000.5,0010.86,0008.10,0007.74
2022-03-11 06:35:00,,0826.8,5.00,0.00,22.3,22.9,00.0,31.2,24.2,06.0,0000.5,0010.93,0008.13,0007.77
2022-03-11 06:36:00,,0827.0,5.00,0.00,22.3,22.6,00.0,31.2,24.1,06.0,0000.7,0010.95,0008.15,0007.79
2022-03-11 06:37:00,,0826.8,5.00,0.00,22.3,22.2,00.0,31.2,24.0,06.0,0000.3,0011.34,0008.22,0007.83
2022-03-11 06:38:00,,0826.8,5.00,0.00,22.2,21.9,00.0,31.2,23.9,06.0,0000.3,0011.28,0008.24,0007.87
2022-03-11 06:39:00,,0826.8,5.00,0.00,22.1,21.7,00.0,31.2,23.8,06.0,0000.7,0011.32,0008.27,0007.91
2022-03-11 06:40:00,,0826.8,5.00,0.00,22.1,21.4,00.0,31.2,23.6,06.0,0000.9,0011.69,0008.31,0007.94
2022-03-11 06:41:00,,0826.8,5.00,0.00,22.0,21.2,00.0,31.1,23.5,06.0,0000.8,0012.75,0008.36,0007.96
2022-03-11 06:42:00,,0826.8,5.00,0.00,22.0,21.2,00.0,31.1,23.5,06.0,0000.7,0012.95,0008.39,0007.96
2022-03-11 06:43:00,,0826.8,5.00,0.00,22.0,21.8,00.0,31.1,23.7,05.9,0000.6,0012.96,0008.39,0007.95
2022-03-11 06:44:00,,0826.8,4.99,0.00,22.2,22.5,00.0,31.2,24.0,05.9,0000.9,0013.04,0008.34,0007.94
2022-03-11 06:45:00,,0826.8,5.00,0.00,22.3,23.1,00.0,31.2,24.2,05.9,0001.7,0013.30,0008.33,0007.92
2022-03-11 06:46:00,,0826.9,4.99,0.00,22.3,22.9,00.0,31.2,24.2,05.8,0002.0,0013.22,0008.32,0007.91
2022-03-11 06:47:00,,0826.8,5.00,0.00,22.3,22.5,00.0,31.2,24.1,05.8,0001.7,0013.21,0008.30,0007.89
2022-03-11 06:48:00,,0826.9,5.01,0.00,22.3,22.1,00.0,31.2,23.9,05.8,0002.3,0012.90,0008.25,0007.88
2022-03-11 06:49:00,,0827.1,5.00,0.00,22.2,21.8,00.0,31.2,23.8,05.9,0002.5,0012.84,0008.22,0007.84
2022-03-11 06:50:00,,0827.0,5.01,0.00,22.1,21.6,00.0,31.2,23.6,05.9,0002.4,0012.89,0008.22,0007.84
2022-03-11 06:51:00,,0826.8,5.01,0.00,22.0,21.3,00.0,31.2,23.5,05.9,0002.1,0012.79,0008.21,0007.83
2022-03-11 06:52:00,,0826.8,5.00,0.00,21.9,21.2,00.0,31.1,23.4,05.9,0002.1,0011.46,0008.15,0007.81
2022-03-11 06:53:00,,0826.8,4.99,0.00,22.0,21.7,00.0,31.1,23.6,05.8,0002.8,0011.26,0008.12,0007.79
2022-03-11 06:54:00,,0826.8,5.00,0.00,22.1,22.4,00.0,31.2,23.9,05.8,0003.1,0011.20,0008.07,0007.77
2022-03-11 06:55:00,,0826.8,5.00,0.00,22.3,23.0,00.0,31.2,24.1,05.8,0002.7,0011.06,0008.06,0007.76
2022-03-11 06:56:00,,0826.8,4.99,0.00,22.3,22.9,00.0,31.2,24.2,05.7,0002.2,0010.84,0008.06,0007.76
2022-03-11 06:57:00,,0826.9,5.01,0.00,22.3,22.6,00.0,31.2,24.1,05.7,0002.2,0010.83,0008.05,0007.75
2022-03-11 06:58:00,,0826.9,5.00,0.00,22.3,22.2,00.0,31.2,23.9,05.7,0002.5,0010.85,0008.03,0007.75
2022-03-11 06:59:00,,0827.0,5.00,0.00,22.2,21.8,00.0,31.2,23.8,05.8,0002.5,0010.95,0008.07,0007.77
